Location: Ostrava
(49.8330°N, 18.2830°E)
Time: 19:18:07
(UTC+01:00)

Daily predictions for brighter satellites

Satellite Brightness Start Highest point End
(mag) Time Altitude Azimuth Time Altitude Azimuth Time Altitude Azimuth
Cosmos 1898 Rocket 3.8 18:29:48 10° S 18:34:53 48° ESE 18:39:58 10° NNE
FENGYUN 3A 3.7 18:29:43 10° SSE 18:35:07 79° ENE 18:40:33 10° NNW
Cosmos 1821 Rocket 4.2 18:29:16 10° SSE 18:35:25 53° E 18:41:34 10° NNE
Meteor 2-5 Rocket 3.9 18:30:30 10° NNW 18:36:13 88° W 18:42:01 10° S
Meteor 1-28 Rocket 4.4 18:32:37 10° N 18:36:19 49° WNW 18:39:59 10° SSW
Cosmos 2263 Rocket 3.3 18:33:24 10° SW 18:38:51 48° NW 18:44:19 10° NNE
Envisat 4.0 18:35:20 10° ESE 18:39:32 27° ENE 18:43:45 10° N
BREEZE-M DEB (TANK) 1.7 18:39:36 10° W 18:42:16 89° S 18:44:39 10° E
Okean 3 Rocket 4.2 18:41:50 10° N 18:45:55 36° ENE 18:49:57 10° SE
Cosmos 2082 Rocket 3.1 18:41:55 10° NNW 18:47:05 33° NE 18:52:12 10° ESE
Cosmos 1900 4.3 18:45:07 10° SW 18:49:59 86° SE 18:54:58 10° NE
Cosmos 1378 3.1 18:48:00 10° N 18:51:48 90° NW 18:55:34 10° S
Cosmos 1605 Rocket 4.4 18:47:36 10° SSE 18:53:23 41° E 18:59:16 10° NNE
Cosmos 1939 Rocket 4.2 18:50:06 10° ESE 18:53:25 24° ENE 18:56:47 10° N
COSMOS 2406 4.1 18:47:51 10° NW 18:53:27 52° WSW 18:58:58 10° S
Cosmos 1953 3.7 18:53:12 10° SE 18:56:07 19° E 18:59:04 10° NE
Cosmos 1818 3.9 18:52:19 10° NW 18:57:42 54° NE 19:02:39 12° ESE
SAR-Lupe-4 3.8 18:55:08 10° SE 18:58:35 48° ENE 19:02:03 10° N
Cosmos 858 Rocket 4.5 18:54:36 10° S 18:59:49 67° ESE 19:05:06 10° NNE
Cosmos 2123 Rocket 4.0 18:54:30 10° N 19:00:52 72° E 19:07:09 10° SSE
H-2A R/B 2.9 18:59:48 10° S 19:03:42 79° WSW 19:07:40 10° NNW
Cosmos 1707 4.2 19:00:46 10° NNW 19:04:29 42° W 19:08:09 10° SSW
ALOS 3.1 19:01:02 10° S 19:05:37 55° W 19:10:14 10° NNW
ERS-1 Rocket 4.0 19:03:33 13° ESE 19:07:04 27° ENE 19:11:16 10° N
Cosmos 1937 Rocket 3.5 19:03:04 10° S 19:08:15 66° ESE 19:13:32 10° NNE
Tiangong 1 3.2 19:08:00 10° SW 19:09:51 15° SSW 19:11:38 10° SSE
GP-B 3.8 19:08:27 10° SE 19:12:27 34° E 19:16:29 10° NNE
Resurs 01 Rocket 2.1 19:08:33 10° S 19:12:56 66° WSW 19:17:22 10° NNW
Cosmos 1844 3.7 19:07:15 10° SSW 19:12:58 69° ESE 19:18:46 10° NNE
Lacrosse 5 rocket 2.1 19:10:09 10° NW 19:13:58 38° NNE 19:16:36 17° E
Cosmos 1269 Rocket 4.4 19:09:03 10° NNW 19:14:10 46° ENE 19:18:13 15° SE
Cosmos 2298 Rocket 4.0 19:09:09 10° SSW 19:14:28 87° ESE 19:19:50 10° NNE
Cosmos 1812 Rocket 3.5 19:10:06 10° S 19:14:31 88° E 19:18:57 10° N
Timation 2 Rocket 4.4 19:08:50 10° NNW 19:15:03 46° NE 19:19:41 17° ESE
Lacrosse 5 2.6 19:12:48 10° S 19:17:13 31° SE 19:21:00 13° ENE
RESURS DK-1 2.8 19:13:23 10° NW 19:17:30 63° WSW 19:21:34 10° SSE
SAR-Lupe-1 4.0 19:14:25 10° SSE 19:17:58 70° ENE 19:21:34 10° N
CZ-3B DEB 2.8 19:09:00 10° SW 19:19:07 55° SE 19:23:25 13° ENE
Abrixas 2.9 19:17:49 10° W 19:20:34 46° SSW 19:21:50 25° SE
USA 186 0.8 19:18:39 13° SSE 19:20:35 86° WSW 19:22:50 10° NNW
SeaSat 1 4.5 19:16:41 10° SSW 19:20:54 28° WSW 19:25:08 10° NW
Cosmos 1766 3.1 19:18:38 10° S 19:22:30 83° E 19:26:26 10° NNE
Cosmos 468 4.5 19:18:44 10° NNW 19:23:58 73° ENE 19:28:43 13° SSE
SPOT 5 4.4 19:21:40 17° E 19:24:05 24° ENE 19:28:14 10° N
Meteor 1-4 Rocket 3.2 19:24:10 18° SE 19:26:04 31° E 19:29:11 10° NNE
Cosmos 1766 Rocket 4.0 19:21:51 10° N 19:26:10 44° ENE 19:29:07 19° SE
Cosmos 1544 3.3 19:23:45 10° SSE 19:27:14 46° E 19:30:47 10° NNE
Cosmos 1076 Rocket 3.5 19:24:37 10° N 19:28:52 61° ENE 19:32:26 14° SSE
SL-27 R/B 3.7 19:27:28 10° NW 19:30:51 41° WSW 19:34:15 10° S
Cosmos 1271 Rocket 4.2 19:32:46 20° ENE 19:32:46 20° ENE 19:35:08 10° NE
Spot 1 4.4 19:28:27 10° SSE 19:33:04 78° WSW 19:38:00 10° NNW
USA 215 3.7 19:27:15 10° ENE 19:33:20 39° SE 19:39:22 10° SSW
Meteor 1-29 3.2 19:30:10 10° NNE 19:33:31 45° E 19:36:53 10° S
CZ-4B DEB 2.5 19:31:31 18° SSE 19:33:39 81° ENE 19:36:47 10° NNW
COSMOS 2487 2.9 19:30:16 10° N 19:33:44 44° ENE 19:34:56 31° ESE
Meteor 1-22 Rocket 4.5 19:28:32 10° SSW 19:34:22 80° WNW 19:40:28 10° N
Cosmos 2084 Rocket 4.2 19:32:11 10° WSW 19:36:03 47° NW 19:39:47 10° NE
Cosmos 1447 Rocket 4.4 19:34:27 10° N 19:40:39 80° E 19:46:47 10° SSE
Cosmos 2344 3.6 19:37:17 10° SSW 19:44:57 77° SE 19:53:59 10° NE
Helios 1B rocket 2.3 19:43:39 10° NNE 19:47:49 83° ESE 19:51:57 10° SSW
Helios 1A 3.9 19:48:40 10° S 19:52:42 49° W 19:56:47 10° NNW
Cosmos 1459 Rocket 4.2 19:47:55 13° SSE 19:53:18 47° E 19:59:11 10° NNE
Cosmos 2173 Rocket 4.2 19:50:13 15° SSE 19:55:00 47° E 20:00:57 10° NNE
Cosmos-2242 3.2 19:54:55 39° SE 19:55:45 44° E 19:59:49 10° NNE
Cosmos 372 Rocket 4.3 19:54:06 23° SSE 19:56:39 39° ESE 20:01:25 10° NE
Cosmos 1674 2.5 19:53:34 10° N 19:57:21 83° E 19:58:44 37° SSE
Cosmos 1844 Rocket 3.7 19:51:57 10° SW 19:57:25 49° NW 20:02:54 10° NNE
Cosmos 1743 Rocket 3.9 19:53:59 10° N 19:58:14 45° ENE 19:59:01 40° ESE
Terra 3.7 19:58:40 15° ENE 19:58:46 15° NE 20:01:23 10° NNE
Cosmos 1805 3.4 19:55:49 10° SSW 19:59:42 73° W 20:03:38 10° N
Cosmos 1500 Rocket 4.2 19:57:11 10° N 20:01:12 36° ENE 20:01:19 36° ENE
Cosmos 1833 Rocket 2.6 19:57:13 10° NNW 20:02:52 88° ENE 20:05:44 30° SSE
Cosmos 1340 Rocket 2.8 19:59:49 10° N 20:03:52 63° ENE 20:04:34 52° ESE
Lacrosse 4 Rocket 2.6 20:00:07 10° WSW 20:03:58 41° NW 20:07:51 10° NNE
H-2A R/B 3.2 20:03:25 27° ENE 20:04:14 28° ENE 20:08:40 10° N
H-2A R/B 3.8 20:04:50 17° NE 20:04:50 17° NE 20:07:02 10° NNE
Cosmos 2278 Rocket 2.2 20:00:10 10° SSW 20:05:51 85° WNW 20:11:36 10° NNE
NOAA 11 4.4 20:04:23 36° ESE 20:06:18 52° ENE 20:11:38 10° N
Cosmos 158 Rocket 3.9 20:02:04 10° NNW 20:07:10 87° WSW 20:09:36 32° SSE
USA 267 3.2 20:05:20 32° ESE 20:08:43 82° NNE 20:15:17 10° WNW
Cosmos 1470 2.7 20:12:25 60° E 20:12:25 60° E 20:16:15 10° NNE
BREEZE-M DEB 4.5 20:09:03 10° WSW 20:12:16 60° WSW 20:12:16 60° WSW
Cosmos 494 Rocket 4.3 20:09:14 10° NNW 20:14:11 46° ENE 20:15:02 42° E
Cosmos 2297 3.7 20:12:13 10° SSW 20:17:49 61° ESE 20:23:29 10° NE
Envisat 3.7 20:13:43 12° S 20:18:17 51° W 20:23:16 10° NNW
Cosmos 1758 4.2 20:17:50 10° SSW 20:21:42 50° WNW 20:25:37 10° N
Cosmos 1408 Rocket 4.2 20:17:51 10° NNW 20:22:14 55° W 20:24:42 24° SSW
MetOp-B 4.0 20:21:24 46° SE 20:22:59 72° ENE 20:28:21 10° NNW
Cosmos 1125 Rocket 3.3 20:20:01 10° SSW 20:25:13 85° ESE 20:30:29 10° NNE
Cosmos 2016 Rocket 4.0 20:23:52 39° SSE 20:26:01 58° E 20:32:03 10° NNE
Cosmos 1939 Rocket 4.1 20:25:48 21° SSW 20:28:10 40° W 20:32:06 10° NNW
YAOGAN 6 2.9 20:28:26 61° SW 20:28:43 63° W 20:32:27 10° NNW
YAOGAN 11 4.1 20:29:03 64° SSE 20:29:46 88° ENE 20:34:22 10° NNW
Cosmos 2082 Rocket 2.7 20:25:54 10° NW 20:31:28 54° WSW 20:34:06 30° S
Cosmos 1725 Rocket 4.2 20:31:26 45° E 20:31:46 46° E 20:37:38 10° NNE
Cosmos 1953 3.5 20:28:23 10° SSW 20:32:16 43° WNW 20:36:11 10° N
Cosmos 1328 4.0 20:31:44 10° N 20:35:10 64° N 20:35:10 64° N
Tsikada Rocket 4.0 20:31:04 10° N 20:37:12 61° ENE 20:38:19 53° ESE
Cosmos 2100 Rocket 4.0 20:31:03 10° S 20:37:22 84° W 20:43:47 10° N
Meteor 1-16 Rocket 4.3 20:37:42 55° ESE 20:38:03 56° E 20:43:51 10° NNE
Cosmos 1733 3.5 20:39:08 65° NNW 20:39:08 65° NNW 20:42:39 10° N
SL-14 R/B 3.8 20:36:26 10° N 20:39:22 50° N 20:39:22 50° N
Cosmos 1626 4.3 20:38:47 10° N 20:40:06 18° NNE 20:40:06 18° NNE
Timation 1 Rocket 4.4 20:38:09 10° SSW 20:44:10 81° WNW 20:50:15 10° NNE
SL-08 R/B 4.4 20:43:39 52° SSE 20:45:07 68° E 20:51:30 10° NNE
ERS-1 Rocket 3.6 20:43:32 31° SSW 20:45:36 51° W 20:50:32 10° NNW
Meteor 2-17 Rocket 4.3 20:43:52 46° S 20:45:47 77° E 20:51:57 10° NNE
SPOT 1/Viking Rocket 3.4 20:47:17 69° E 20:47:26 70° ENE 20:52:38 10° N
Cosmos 2251 Rocket 3.4 20:44:37 10° NNW 20:49:58 85° ENE 20:50:17 79° SE
Cosmos 1356 Rocket 3.8 20:46:44 10° NNW 20:50:13 60° NNW 20:50:13 60° NNW
Lacrosse 5 rocket 2.3 20:49:30 10° WNW 20:52:18 42° W 20:52:18 42° W
Cosmos 1802 Rocket 4.0 20:50:58 28° SSW 20:54:26 79° W 21:00:39 10° N
SL-08 RB Rocket 3.9 20:56:55 71° N 20:56:55 71° N 21:01:08 10° NNW
MOS 1-B Rocket 4.5 20:55:47 50° SE 20:58:08 76° ENE 21:05:11 10° NNW
Lacrosse 5 1.9 20:54:49 10° WSW 20:59:53 74° NNW 21:00:18 69° N
SPOT 5 3.3 21:00:54 59° SSW 21:01:40 67° WSW 21:07:01 10° NNW
Cosmos 2061 Rocket 4.3 20:56:56 16° SSW 21:02:03 66° WNW 21:08:29 10° N
ARGOS 3.1 21:02:12 68° SSW 21:02:42 75° WSW 21:08:06 10° NNW
Cosmos 2151 3.8 21:02:14 10° NNW 21:05:31 50° NNW 21:05:31 50° NNW
Cosmos 1271 Rocket 4.1 21:07:53 38° WNW 21:07:53 38° WNW 21:11:41 10° N
USA 245 4.3 21:13:03 68° SW 21:13:24 70° WSW 21:19:22 10° NNW
Cosmos 2346 Rocket 4.4 21:10:16 10° N 21:16:18 73° ENE 21:16:18 73° ENE
USA 215 3.2 21:10:53 14° ENE 21:16:45 82° NNW 21:23:17 10° WSW
Cosmos 2058 4.3 21:14:53 10° NNW 21:17:34 37° NNW 21:17:34 37° NNW
Cosmos 1816 Rocket 4.3 21:12:57 10° N 21:19:09 83° W 21:19:29 79° SSW
Cosmos 1867 4.3 21:14:32 10° SW 21:21:46 44° NNE 21:25:31 10° NE
Cosmos 2369 Rocket 4.4 21:35:19 13° NE 21:35:19 13° NE 21:35:54 10° NE
BREEZE-M DEB (TANK) 4.5 21:26:03 10° SW 21:31:30 63° SSE 21:55:44 10° E
CZ-3B DEB 2.7 21:25:22 10° W 21:31:10 46° NW 21:31:10 46° NW
Terra 2.9 21:37:32 41° NNW 21:37:32 41° NNW 21:40:37 10° NNW
Cosmos 2227 Rocket 4.4 21:35:55 10° N 21:39:00 15° NNE 21:40:12 14° NE
H-2A R/B 3.9 21:41:57 27° NNW 21:41:57 27° NNW 21:43:59 10° NNW
Cosmos 2233 Rocket 4.1 21:43:26 66° N 21:43:26 66° N 21:48:40 10° N
H-2A R/B 2.8 21:44:02 51° WNW 21:44:02 51° WNW 21:48:37 10° NNW
USA 267 4.0 21:52:40 39° WSW 21:52:40 39° WSW 21:58:12 10° WNW
ATLAS 5 CENTAUR R/B 4.4 22:20:13 14° NE 22:20:13 14° NE 22:21:01 10° NE
Lacrosse 5 4.4 22:38:44 10° WNW 22:39:36 15° WNW 22:39:36 15° WNW
Cosmos 2297 Rocket 4.0 22:54:09 10° NNW 22:57:34 25° NNE 22:57:34 25° NNE
USA 215 3.9 22:53:09 10° ENE 22:59:27 50° N 23:05:42 10° W
Cosmos 2369 Rocket 3.9 23:17:04 28° N 23:17:04 28° N 23:20:03 10° NNE
CZ-4C R/B 4.1 23:25:33 26° NE 23:25:33 26° NE 23:28:20 10° NE
Cosmos 2227 Rocket 3.9 23:19:04 10° NNW 23:22:00 29° N 23:22:00 29° N
